YZ-1 R/B, 43625

Orbit data source: Space-Track

YZ-1 R/B, 43625 is space debris originally from a launch on Wed, 19 Sep 2018 UTC launched from the Xichang Space Center, China (XSC). Debris objects in space refer to the collection of defunct objects orbiting the Earth. Examples of debris include non-operational satellites, rocket bodies, and fragments generated from explosions, collisions, or faulty payload assembly.

Loading next visibility...
YZ-1 R/B details
Identifier
43625, 2018-072D
Orbit
Active
Last TLE update8 hours ago
Origin
Flag of CNCASC (CN / PRC)
ManufacturerCALT
MissionSpacecraft
Bus & MotorYZ-1, Unknown motor
Mass~5,815 kg wet, ~5,815 kg dry
Launch date (UTC)
2018-09-19 (6 years ago)
Launch vehicleUnknown
Launch site
Xichang Space Center, China (XSC)
Object type
Payload
Rocket body
Debris
Shape & HBRDouble Cone, 4 m
Radar Cross Section5.890 m², Large (>1 m²)

Expand to show TLE details & history

TLE from 8 hours ago
0 YZ-1 R/B
1 43625U 18072D   24361.51974003 -.00000034  00000-0  00000-0 0  9991
2 43625  55.9568  87.8254 0102146  56.5036 304.4749  1.77481978 40640
Epoch: 2024-12-26T12:28Z
Definitive object data (Epoch: 2024-12-26T12:28:25.538Z)
Latitude-0.00003°
Longitude165.22681°
Altitude22,272.976 km
Speed3.741 km/s
True Right ascension05h 51m 19s
True Declination0° 00' 00"
Sunlit
Object was in daylight at TLE epoch
Visualization TLE readout
Latitude-32.43448°
Longitude10.57663°
Altitude22,730.499 km
Speed3.682 km/s
Apparent Right ascension19h 24m 48s
Apparent Declination-44° 53' 51"
Sunlit
Object is in daylight
Visualization observer readout
Local Sidereal Time20:04:41
Azimuth187.069° SSW
Elevation4.714°
Doppler factor1
Orbital elements
Apogee altitude22,732.087 km
Perigee altitude22,143.402 km
Semi-major axis28,815.882 km
Eccentricity0.0102146
Inclination55.9568°
RAAN87.8254°
Arg. of periapsis56.5036°
True anomaly303.50299°
Mean anomaly304.4749°
Eccentric anomaly303.98964°
Mean motion0.44371 °/min
BSTARUnknown
Orbital period811.35 mins
Loading maneuver chart data...
Loading historical data...
Loading historical data...
Loading historical data...
Loading historical data...
Loading historical data...
Loading historical data...
Loading historical data...
Other satellites on launch #72 in the year 2018 (2018-09-19 UTC)

YZ-1 R/B Visibility forecast

Observer location: undefined°, undefined

Span
Click to sort rows by Start time (UTC) header in descending order
Start Az.
Max El. time (UTC)
Max El. Az.
Max El.
End time (UTC)
End Az.
181 mins2024-12-27 02:21:49.530Z98.633° ESE2024-12-27 03:54:49.530Z63.397° ENE21.991°2024-12-27 05:22:49.530Z35.049° NE
131 mins2024-12-27 18:30:49.530Z323.294° NNW2024-12-27 20:21:49.530Z289.459° WNW28.033°2024-12-27 20:41:49.530Z280.305° WNW
|